Flag for United Kingdom Weather past 2 weeks in Weymouth, England, United Kingdom

Now
64 °F

Mild.


Feels Like: 64 °F
Forecast: 58 / 66 °F
Wind: N/A

Location: Isle Of Portland

Current Time: Sep 30, 2014 at 9:44:14 PM

Latest Report: Sep 30, 2014 at 4:00 PM


Visibility: 9 mi

Pressure: 30.25 "Hg

Humidity: 84%

Dew point: 59 °F

Location of WeymouthLocation

Historic Weather in Weymouth — Graph

°F

Weymouth temperature yesterday

Maximum temperature yesterday: 64 °F (at 2:00 PM)
Minimum temperature yesterday: 59 °F (at 5:00 AM)
Average temperature yesterday: 61 °F

Past Weeks' High & Low Weather Summary

 TemperatureHumidityPressure
High72 °F (Sep 17, 3:00 PM)97% (Sep 20, 9:00 AM)30.34 "Hg (Sep 20, 9:00 AM)
Low52 °F (Sep 22, 6:00 AM)49% (Sep 21, 2:00 PM)29.73 "Hg (Sep 18, 6:00 AM)
Average62 °F81%30.08 "Hg
* Reported Sep 15 4:00 PM — Sep 30 4:00 PM, Weymouth, Weather by CustomWeather, © 2014

Note: Actual official high and low records may vary slightly from our data, if they occured in-between our weather recording intervals... More about our weather records

Advertising

Weymouth weather history for previous 24 hours

 ConditionsComfort  
Time TempWeatherWind HumidityBarometerVisibility
4:00 PM
Sep 30
64 °FMild.N/A84%30.25 "Hg9 mi
2:00 PM63 °FMild.8 mph81%30.26 "Hg7 mi
1:00 PM64 °FSmoke.12 mph83%30.26 "Hg6 mi
12:00 PM64 °FMild.10 mph81%30.26 "Hg6 mi
11:00 AM65 °FSmoke.10 mph83%30.25 "Hg6 mi
10:00 AM63 °FSmoke.9 mph87%30.24 "Hg5 mi
9:00 AM62 °FSmoke.9 mph90%30.22 "Hg4 mi
8:00 AM61 °FSmoke.13 mph90%30.21 "Hg4 mi
7:00 AM61 °FSmoke.13 mph91%30.19 "Hg4 mi
6:00 AM62 °FSmoke.13 mph92%30.19 "Hg4 mi
5:00 AM62 °FCool.14 mph92%30.19 "Hg4 mi
4:00 AM62 °FRain showers. Overcast.10 mph93%30.18 "Hg2 mi
3:00 AM61 °FSmoke.10 mph89%30.19 "Hg6 mi
2:00 AM60 °FCool.9 mph88%30.19 "Hg15 mi
1:00 AM60 °FCool.12 mph88%30.19 "Hg15 mi
12:00 AM60 °FCool.10 mph91%30.18 "Hg7 mi
11:00 PM
Sep 29
61 °FCool.13 mph91%30.18 "Hg8 mi
10:00 PM61 °FCool.12 mph90%30.18 "Hg9 mi
9:00 PM61 °FSmoke.10 mph89%30.17 "Hg6 mi
Weather by CustomWeather, © 2014

See weather overviewHow to use our weather pages